Regional Weather Roundup
Issued by NWS Jackson, KY

Home | Current Version | Previous Version | Graphics & Text | Print | Product List | Glossary On
Versions: 1 2 3 4 5 6 7 8 9 10 11 12 13 14 15 16 17 18 19 20 21 22 23 24 25 26 27
000
ASUS43 KJKL 302110
RWRJKL

EAST KENTUCKY HOURLY WEATHER ROUNDUP
NATIONAL WEATHER SERVICE JACKSON KY
500 PM EDT SAT APR 30 2016

NOTE: "FAIR" INDICATES FEW OR NO CLOUDS BELOW 12,000 FEET WITH
NO SIGNIFICANT WEATHER AND/OR OBSTRUCTIONS TO VISIBILITY.

* THESE REPORTS ARE NOT UNDER NWS QUALITY CONTROL AND MAY NOT
  REPORT WEATHER SUCH AS PRECIPITATION AND FOG.

KYZ079-080-083-085-087-088-110-112-115-119-120-302200
...EASTERN KENTUCKY...

CITY           SKY/WX    TMP DP  RH WIND       PRES   REMARKS
JACKSON        CLOUDY    60  58  92 VRB3      29.99F FOG
LONDON         CLOUDY    63  58  83 E7        29.95F
SOMERSET*      CLOUDY    63  61  94 SE3       29.95F
MONTICELLO*    CLOUDY    67  62  84 NE8       29.95F
WILLIAMSBURG*  CLOUDY    59  59 100 SE5       29.95F
MIDDLESBORO*   LGT RAIN  62  61  99 CALM      29.98F
HARLAN APT*    CLOUDY    61  59  94 CALM      30.01F
HAZARD APT*    CLOUDY    63  63 100 CALM      29.99F FOG
BLACK MTN*       N/A     57  55  94 SE1         N/A
PIKE CO APT*   LGT RAIN  61  60  99 SE5       30.03F
BIG SANDY APT* RAIN      62  61  97 SE3       30.02F
MOREHEAD APT*  LGT RAIN  61  59  94 SE8       29.99F
$$

KYZ035-036-041-042-044-050-067-078-099-302200
...CENTRAL KENTUCKY...

CITY           SKY/WX    TMP DP  RH WIND       PRES   REMARKS
MT STERLING*   CLOUDY    61  61 100 SE9       29.97F
FLEMING/MASON* CLOUDY    58  58  97 SE8       29.98F
DANVILLE*      CLOUDY    63  61  94 SE6       29.93F
RICHMOND*      CLOUDY    63  59  88 SE6       29.93F
LEXINGTON      CLOUDY    63  59  87 SE14      29.91F
FRANKFORT      CLOUDY    64  59  83 SE12      29.88F
LOUISVILLE     CLOUDY    67  61  81 CALM      29.89R
LEBANON*         N/A     66  63  88 SE12      29.90F
BOWLING GREEN  CLOUDY    73  64  73 S9        29.87R
$$

KYZ091>093-OHZ055-061-077-WVZ005-015-034-035-042-302200
...SOUTHERN OHIO/WEST VIRGINIA...

CITY           SKY/WX    TMP DP  RH WIND       PRES   REMARKS
COVINGTON      CLOUDY    59  57  93 SE10      29.91F
COLUMBUS       LGT RAIN  54  53  97 E12       29.98F
DAYTON         RAIN      55  54  96 SE12      29.94S FOG
WILMINGTON     LGT RAIN  55  54  96 SE20G25   29.91F FOG
HUNTINGTON     LGT RAIN  59  57  93 SE5       30.01F
CHARLESTON     LGT RAIN  62  59  90 SE3       30.03F FOG
PINEVILLE*     LGT RAIN  70  53  55 MISG      30.10R
BECKLEY        LGT RAIN  62  55  77 SE8       30.08S
$$

VAZ002-007-008-TNZ017-027-036-066-071-302200
...SOUTHWEST VIRGINIA/EAST TENNESSEE...

CITY           SKY/WX    TMP DP  RH WIND       PRES   REMARKS
WISE*          CLOUDY    61  54  77 NW3       30.09S
BRISTOL        CLOUDY    73  57  57 NW16      29.98R
MORRISTOWN*    PTCLDY    68  59  73 NE6       29.96F
SEVIERVILLE*   MOCLDY    68  57  68 SE5       29.97S
KNOXVILLE      CLOUDY    67  61  81 NE9       29.94F
OAK RIDGE      CLOUDY    66  63  90 VRB3      29.96S
CROSSVILLE     CLOUDY    76  60  57 VRB5      29.95F
NASHVILLE      LGT RAIN  75  63  66 SW5       29.88S
$$

...KEY TO REMARKS...
VSB - VISIBILITY IN MILES
WCI - WIND CHILL INDEX
HX  - HEAT INDEX

$$




USA.gov is the U.S. government's official web portal to all federal, state and local government web resources and services.